Epoch 1996 Feb. 7.0 TT = JDT 2450120.5 T 1996 Jan. 29.20478 TT MPC q 3.5652160 (2000.0) P Q n 0.05668270 Peri. 211.34977 +0.22090024 -0.97463398 a 6.7117489 Node 225.91581 +0.90485255 +0.21855649 e 0.4688097 Incl. 2.86791 +0.36392986 +0.04818370 P 17.4 From 162 observations 1997 Feb. 1-2012 Oct. 8, mean residual 0".7.
m1 = 3.0 + 5 logΔ + 20 log r